Location: ??
(34.7707°N, 135.6540°E)
Time: 04:07:48
(UTC+00:00)

ATLAS 3B R/B - Pass Details

Date: 09 April 2020
Orbit: 1024 x 1171 km, 63.8° (Epoch: 26 May)

Event Time Altitude Azimuth Distance (km) Brightness Sun altitude
Exits shadow 17:13:21 34° 99° (E) 1,632 3.8 -36.8°
Drops below altitude 10° 17:18:31 10° 49° (NE) 2,816 5.7 -36.0°
Sets 17:21:20 0° 41° (NE) 3,773 6.6 -35.6°
